Simultaneous Nadir Overpasses (SNOs) Predictions

Prediction of SNOs between GOES-15 and NPP Satellite Orbit:

Table of predicted SNOs for the next 14.0 days since TLE Epoch: 5/25/2012
Index Date Time (GOES-15) GOES-15 Lat,Lon NPP Lat,Lon Distance(km) Time Diff (sec)
1 05/26/2012 10:13:22 -0.03,-135.42 -0.75,-132.23 363.59 80
2 05/27/2012 22:32:37 0.06,-135.43 -0.43,-137.54 240.94 80
3 05/28/2012 22:16:32 0.05,-135.42 0.59,-133.00 275.16 80
4 05/30/2012 10:35:38 -0.07,-135.39 0.58,-138.27 328.48 80
5 05/31/2012 10:19:33 -0.06,-135.38 -0.44,-133.74 186.93 80
6 06/01/2012 22:38:48 0.09,-135.36 -0.74,-139.04 419.51 80
7 06/02/2012 22:22:42 0.08,-135.34 0.28,-134.51 95.47 80
8 06/05/2012 10:25:43 -0.10,-135.28 -0.12,-135.24 5.06 80
9 06/07/2012 22:26:13
